Regional Weather Roundup
Issued by NWS

Home | Current Version | Previous Version | Graphics & Text | Print | Product List | Glossary On
Versions: 1 2 3 4 5 6 7 8 9 10 11 12 13 14 15 16 17 18 19 20 21 22 23 24 25 26 27 28 29 30 31 32 33 34 35 36 37 38 39 40 41 42 43 44 45 46 47 48 49 50
000
ASUS43 KIND 252200
RWRIN

WEATHER ROUNDUP FOR INDIANA
NATIONAL WEATHER SERVICE INDIANAPOLIS IN
600 PM EDT SUN JUN 25 2017

NOTE: "FAIR" INDICATES FEW OR NO CLOUDS BELOW 12,000 FEET WITH NO
SIGNIFICANT WEATHER AND/OR OBSTRUCTIONS TO VISIBILITY.

* - STATION DOES NOT REPORT WEATHER SUCH AS PRECIPITATION OR FOG.

+ - STATION NOT QUALITY CONTROLLED BY THE NATIONAL WEATHER SERVICE.
    USE DATA WITH CAUTION...ESPECIALLY DEWPOINT AND RELATIVE
    HUMIDITY OBSERVATIONS.

INZ001>003-010>013-019-020-252300-
NORTHWEST INDIANA

CITY           SKY/WX    TMP DP  RH WIND       PRES   REMARKS
GARY /AIRPORT/ PTSUNNY   72  39  30 W15G30    30.08F
KNOX *+        PTSUNNY   72  32  23 W14G20    30.08S
MICHIGAN CITY+ PTSUNNY   72  45  37 NW7G16    30.07F
MONTICELLO +   PTSUNNY   71  43  36 W10G17    30.10F

$$

LMZ046-743>745-252300-
SOUTHERN LAKE MICHIGAN

STATION/POSITION TIME  TEMP    WIND        PRES    WAVE
                       AIR SEA DIR/SP/G            HT
                 (UTC) (F)     (DEG/KT/KT) (MB)    (FT)
BURNS HARBOR     2140   69     270/ 12/ 15 1018.6F
MICHIGAN CITY    2130   66     260/  8/  9   N/A
5NW MICH CITY    2140   67 67  270/  8/ 10   N/A     2

$$

INZ004-005-014>016-021>024-252300-
NORTH CENTRAL INDIANA

CITY           SKY/WX    TMP DP  RH WIND       PRES   REMARKS
GOSHEN         PTSUNNY   69  43  38 W15       30.07F
SOUTH BEND     MOSUNNY   70  46  42 W15G25    30.08S

$$

INZ006>009-017-018-025>027-252300-
NORTHEAST INDIANA

CITY           SKY/WX    TMP DP  RH WIND       PRES   REMARKS
FORT WAYNE     MOSUNNY   72  45  37 W17G23    30.08F
KENDALLVILLE + CLOUDY    69  44  40 W13       30.08S

$$

INZ028-029-035-036-043>045-051>053-252300-
WEST CENTRAL INDIANA

CITY           SKY/WX    TMP DP  RH WIND       PRES   REMARKS
LAFAYETTE      PTSUNNY   71  48  43 W13       30.10F
TERRE HAUTE    MOSUNNY   76  44  32 W8        30.12F

$$

INZ030>032-037>040-046>048-054>057-064-065-252300-
CENTRAL INDIANA

CITY           SKY/WX    TMP DP  RH WIND       PRES   REMARKS
COLUMBUS       MOSUNNY   75  39  27 W9G18     30.12F
GREENWOOD *+   MOSUNNY   74  45  35 W10G17    30.12F
INDIANAPOLIS   MOSUNNY   74  46  36 W20       30.11F
-EAGLE CREEK   MOSUNNY   73  45  36 W13       30.10F
KOKOMO +       PTSUNNY   70  47  43 W15       30.11F
MT COMFORT *+  PTSUNNY   72  48  43 NW13G18   30.12S
SHELBYVILLE    MOSUNNY   76  47  35 W14G21    30.10F

$$

INZ033-034-041-042-049-050-058-059-252300-
EAST CENTRAL INDIANA

CITY           SKY/WX    TMP DP  RH WIND       PRES   REMARKS
MUNCIE         PTSUNNY   73  47  39 W15       30.10F
RICHMOND +     MOSUNNY   72  45  37 NW15      30.12F

$$

INZ060-061-067>069-081>083-085>088-252300-
SOUTHWEST INDIANA

CITY           SKY/WX    TMP DP  RH WIND       PRES   REMARKS
EVANSVILLE     MOSUNNY   82  44  26 W15G21    30.14F
HUNTINGBURG *+ SUNNY     80  49  33 W15       30.13F

$$

INZ062-063-066-070>080-084-089>092-252300-
SOUTH CENTRAL AND SOUTHEAST INDIANA

CITY           SKY/WX    TMP DP  RH WIND       PRES   REMARKS
BLOOMINGTON    MOSUNNY   77  46  33 W8        30.12F
MADISON *+     SUNNY     79  37  22 W14G23    30.13F
SEYMOUR +      SUNNY     79  48  34 W12G24    30.11F

$$




USA.gov is the U.S. government's official web portal to all federal, state and local government web resources and services.